Time,TemperatureF,DewpointF,PressureIn,WindDirection,WindDirectionDegrees,WindSpeedMPH,WindSpeedGustMPH,Humidity,HourlyPrecipIn,Conditions,Clouds,dailyrainin,SoftwareType,DateUTC
2013-10-27 00:01:00,41.3,37.1,26.76,South,176,0.0,0.0,85,0.00,,,-99.99,VWS V12.07,2013-10-27 04:01:00,
2013-10-27 00:31:00,41.7,35.7,26.76,WNW,290,0.0,0.0,79,0.00,,,-99.99,VWS V12.07,2013-10-27 04:31:00,
2013-10-27 01:01:00,42.6,35.2,26.76,SW,230,0.0,0.0,75,0.00,,,-99.99,VWS V12.07,2013-10-27 05:01:00,
2013-10-27 01:31:00,42.7,35.3,26.76,SSW,208,0.0,0.0,75,0.00,,,-99.99,VWS V12.07,2013-10-27 05:31:00,
2013-10-27 02:01:00,42.6,35.6,26.75,WNW,283,0.0,0.0,76,0.00,,,-99.99,VWS V12.07,2013-10-27 06:01:00,
2013-10-27 02:31:00,42.6,36.5,26.74,WNW,289,0.0,0.0,79,0.00,,,-99.99,VWS V12.07,2013-10-27 06:31:00,
2013-10-27 03:01:00,42.8,37.1,26.74,SW,230,0.0,0.0,80,0.00,,,-99.99,VWS V12.07,2013-10-27 07:01:00,
2013-10-27 03:31:00,42.7,37.6,26.74,SW,215,0.0,0.0,82,0.00,,,-99.99,VWS V12.07,2013-10-27 07:31:00,
2013-10-27 04:01:00,42.5,38.0,26.73,SW,217,0.0,0.0,84,0.00,,,-99.99,VWS V12.07,2013-10-27 08:01:00,
2013-10-27 04:31:00,42.2,37.4,26.73,SW,218,0.0,0.0,83,0.00,,,-99.99,VWS V12.07,2013-10-27 08:31:00,
2013-10-27 05:01:00,41.9,37.4,26.72,South,189,0.0,0.0,84,0.00,,,-99.99,VWS V12.07,2013-10-27 09:01:00,
2013-10-27 05:31:00,41.6,37.1,26.73,SSW,210,0.0,0.0,84,0.00,,,-99.99,VWS V12.07,2013-10-27 09:31:00,
2013-10-27 06:01:00,41.6,37.1,26.73,SSW,212,0.0,0.0,84,0.00,,,-99.99,VWS V12.07,2013-10-27 10:01:00,
2013-10-27 06:31:00,41.5,37.3,26.73,SW,214,0.0,0.0,85,0.00,,,-99.99,VWS V12.07,2013-10-27 10:31:00,
2013-10-27 07:01:00,41.4,37.2,26.74,SW,217,0.0,0.0,85,0.00,,,-99.99,VWS V12.07,2013-10-27 11:01:00,
2013-10-27 07:31:00,41.9,37.7,26.75,SSW,202,0.0,0.0,85,0.00,,,-99.99,VWS V12.07,2013-10-27 11:31:00,
2013-10-27 08:01:00,42.3,38.1,26.76,SW,235,0.0,0.0,85,0.00,,,-99.99,VWS V12.07,2013-10-27 12:01:00,
2013-10-27 08:31:00,44.3,39.5,26.78,SW,223,0.0,0.0,83,0.00,,,-99.99,VWS V12.07,2013-10-27 12:31:00,
2013-10-27 09:01:00,46.4,41.2,26.79,SW,227,0.0,0.0,82,0.00,,,-99.99,VWS V12.07,2013-10-27 13:01:00,
2013-10-27 09:31:00,47.7,41.5,26.79,SSW,205,0.0,0.0,79,0.00,,,-99.99,VWS V12.07,2013-10-27 13:31:00,
2013-10-27 10:01:00,49.0,42.1,26.79,SSW,208,0.0,0.0,77,0.00,,,-99.99,VWS V12.07,2013-10-27 14:01:00,
2013-10-27 10:31:00,50.5,42.5,26.79,SSW,194,0.0,0.0,74,0.00,,,-99.99,VWS V12.07,2013-10-27 14:31:00,
2013-10-27 11:01:00,51.7,43.7,26.80,WNW,299,0.0,0.0,74,0.00,,,-99.99,VWS V12.07,2013-10-27 15:01:00,
2013-10-27 11:31:00,52.4,43.7,26.80,SSW,209,0.0,0.0,72,0.00,,,-99.99,VWS V12.07,2013-10-27 15:31:00,
2013-10-27 12:01:00,54.4,44.8,26.80,SW,228,0.0,0.0,70,0.00,,,-99.99,VWS V12.07,2013-10-27 16:01:00,
2013-10-27 12:31:00,55.6,45.6,26.80,SSW,213,0.0,0.0,69,0.00,,,-99.99,VWS V12.07,2013-10-27 16:31:00,
2013-10-27 13:01:00,57.3,45.7,26.78,SSW,213,0.0,0.0,65,0.00,,,-99.99,VWS V12.07,2013-10-27 17:01:00,
2013-10-27 13:31:00,57.6,46.3,26.77,South,183,0.0,0.0,66,0.00,,,-99.99,VWS V12.07,2013-10-27 17:31:00,
2013-10-27 14:01:00,58.0,45.5,26.77,South,169,0.0,0.0,63,0.00,,,-99.99,VWS V12.07,2013-10-27 18:01:00,
2013-10-27 14:31:00,58.5,44.7,26.76,SSW,202,0.0,0.0,60,0.00,,,-99.99,VWS V12.07,2013-10-27 18:31:00,
2013-10-27 15:01:00,59.1,45.7,26.77,WSW,245,0.0,0.0,61,0.00,,,-99.99,VWS V12.07,2013-10-27 19:01:00,
2013-10-27 15:31:00,58.9,45.1,26.77,SSW,204,0.0,0.0,60,0.00,,,-99.99,VWS V12.07,2013-10-27 19:31:00,
2013-10-27 16:01:00,58.5,45.5,26.77,South,177,0.0,0.0,62,0.00,,,-99.99,VWS V12.07,2013-10-27 20:01:00,
2013-10-27 16:31:00,57.4,44.9,26.77,South,187,0.0,0.0,63,0.00,,,-99.99,VWS V12.07,2013-10-27 20:31:00,
2013-10-27 17:01:00,56.4,44.8,26.78,SSW,213,0.0,0.0,65,0.00,,,-99.99,VWS V12.07,2013-10-27 21:01:00,
2013-10-27 17:31:00,53.6,44.8,26.78,SSW,193,0.0,0.0,72,0.00,,,-99.99,VWS V12.07,2013-10-27 21:31:00,
2013-10-27 18:01:00,51.4,44.4,26.79,SSW,192,0.0,0.0,77,0.00,,,-99.99,VWS V12.07,2013-10-27 22:01:00,
2013-10-27 18:31:00,50.9,45.3,26.80,SSW,213,0.0,0.0,81,0.00,,,-99.99,VWS V12.07,2013-10-27 22:31:00,
2013-10-27 19:01:00,51.1,45.5,26.80,SSW,212,0.0,0.0,81,0.00,,,-99.99,VWS V12.07,2013-10-27 23:01:00,
2013-10-27 19:31:00,49.9,45.0,26.81,SSW,212,0.0,0.0,83,0.00,,,-99.99,VWS V12.07,2013-10-27 23:31:00,
2013-10-27 20:01:00,50.2,45.9,26.80,SSW,198,0.0,0.0,85,0.00,,,-99.99,VWS V12.07,2013-10-28 00:01:00,
2013-10-27 20:31:00,49.5,45.8,26.81,South,187,0.0,0.0,87,0.00,,,-99.99,VWS V12.07,2013-10-28 00:31:00,
2013-10-27 21:01:00,49.1,46.6,26.82,SSW,193,0.0,0.0,91,0.00,,,-99.99,VWS V12.07,2013-10-28 01:01:00,
2013-10-27 21:31:00,50.0,46.9,26.82,SSE,163,0.0,0.0,89,0.00,,,-99.99,VWS V12.07,2013-10-28 01:31:00,
2013-10-27 22:01:00,47.8,45.6,26.83,SSE,163,0.0,0.0,92,0.00,,,-99.99,VWS V12.07,2013-10-28 02:01:00,
2013-10-27 22:31:00,47.1,45.7,26.83,SSE,163,0.0,0.0,95,0.00,,,-99.99,VWS V12.07,2013-10-28 02:31:00,
2013-10-27 23:01:00,48.2,46.8,26.83,SSE,163,0.0,0.0,95,0.00,,,-99.99,VWS V12.07,2013-10-28 03:01:00,
2013-10-27 23:31:00,49.9,48.5,26.83,SSE,163,0.0,0.0,95,0.00,,,-99.99,VWS V12.07,2013-10-28 03:31:00,